User: anonymous   Login
Location: Albany
(35.0000°S, 118.0000°E)
Time: 23:01:40
(UTC-04:00)
Language:

Cosmos 1758 Rocket - Orbit

View from above orbital plane
View from above orbital plane
View from above satellite
View from above satellite

Ground track
Ground track

The orbit data is extracted from the following two-line orbital elements,

1 16792U 86046B   16149.76653068  .00000102  00000-0  95261-5 0  9992
2 16792  82.4835 204.1015 0025706 117.3182   1.2474 14.83068106617901
Epoch (UTC): 28 May 2016 18:23:48
Eccentricity: 0.0025706
inclination: 82.4835°
perigee height: 601 km
apogee height: 637 km
right ascension of ascending node: 204.1015°
argument of perigee: 117.3182°
revolutions per day: 14.83068106
mean anomaly at epoch: 1.2474°
orbit number at epoch: 61790

The dashed part of the orbit path shows where the satellite is in the earth's shadow,  

DLR